Home   Weather   34°33'S, 58°35'W   Past weeks
Flag for Argentina

Past Weather in 34°33'S, 58°35'W, Argentina — Yesterday and Last 2 Weeks

Now
50 °F

Clear.


Feels Like: 45 °F
Forecast: 54 / 46 °F
Wind: 13 mph from East

Location: Buenos Aires Airport

Current Time: Aug 22, 2019 at 1:45:03 am

Latest Report: Aug 22, 2019 at 1:00 am


Visibility: 10 mi

Pressure: 30.36 "Hg

Humidity: 82%

Dew Point: 45 °F

Location of 34°33'S, 58°35'WLocation

Past Weather in 34°33'S, 58°35'W — Graph

°F

34°33'S, 58°35'W Temperature Yesterday

Maximum temperature yesterday: 52 °F (at 1:00 pm)
Minimum temperature yesterday: 46 °F (at 1:00 am)
Average temperature yesterday: 49 °F

High & Low Weather Summary for the Past Weeks

 TemperatureHumidityPressure
High66 °F (Aug 17, 6:00 pm)94% (Aug 9, 1:00 pm)30.63 "Hg (Aug 9, 1:00 pm)
Low37 °F (Aug 13, 7:00 am)40% (Aug 13, 3:00 pm)29.71 "Hg (Aug 17, 5:00 am)
Average51 °F69%30.21 "Hg
* Reported Aug 7 12:00 am — Aug 22 12:00 am, 34°33'S, 58°35'W. Weather by CustomWeather, © 2019

Note: Actual official high and low records may vary slightly from our data, if they occured in-between our weather recording intervals... More about our weather records

Advertising

34°33'S, 58°35'W Weather History for the Previous 24 Hours

Scroll right to see more
 ConditionsComfort  
Time TempWeatherWind HumidityBarometerVisibility
12:00 am
Thu, Aug 22
50 °FClear.14 mph88%30.36 "Hg10 mi
11:00 pm
Wed, Aug 21
50 °FClear.16 mph88%30.36 "Hg10 mi
10:00 pm50 °FClear.15 mph88%30.36 "Hg10 mi
9:00 pm50 °FClear.17 mph82%30.33 "Hg10 mi
8:00 pm50 °FClear.17 mph82%30.33 "Hg10 mi
7:00 pm50 °FClear.17 mph76%30.33 "Hg10 mi
6:00 pm50 °FSunny.15 mph76%30.36 "Hg10 mi
5:00 pm50 °FSunny.15 mph71%30.36 "Hg10 mi
4:00 pm52 °FPartly sunny.13 mph72%30.36 "HgN/A
3:00 pm52 °FPartly sunny.16 mph72%30.36 "HgN/A
2:00 pm50 °FBroken clouds.14 mph71%30.39 "HgN/A
1:00 pm52 °FScattered clouds.12 mph67%30.42 "HgN/A
12:00 pm50 °FScattered clouds.12 mph67%30.45 "HgN/A
10:00 am50 °FScattered clouds.12 mph71%30.45 "HgN/A
9:00 am48 °FScattered clouds.10 mph71%30.45 "HgN/A
8:00 am46 °FScattered clouds.9 mph76%30.45 "HgN/A
7:00 am46 °FPassing clouds.10 mph76%30.42 "HgN/A
6:00 am46 °FPartly cloudy.10 mph76%30.42 "HgN/A
5:00 am46 °FPartly cloudy.9 mph76%30.42 "HgN/A
4:00 am46 °FPassing clouds.10 mph76%30.42 "HgN/A
2:00 am46 °FPassing clouds.10 mph76%30.45 "HgN/A
1:00 am46 °FPassing clouds.13 mph71%30.45 "HgN/A
Weather by CustomWeather, © 2019

See weather overview